www.pogodaiklimat.ru

Погода и климат >> Архив погоды >> Россия >> Кировская область >> Кирс


ПОГОДА в Кирсе

  • Прогноз погоды в Кирсе
  • Монитор погоды в Кирсе
  • Климат города

АРХИВ ПОГОДЫ в Кирсе

Время (UTC), дата Ветер
(напр.,м/с)
 
Видим.   Явления Облачность Т
(С)
Тd
(С)
f
(%)
Тe
(С)
Тes
(С)
Комфортность P
(гПа)
Po
(гПа)
Тmin
(С)
Tmax
(С)
R
(мм)
R24
(мм)
S
(см)
15 8.08 С 2-3
{7}
20 км 9/9 300 м
[Cb cap]
+14.7 +8.4 66 +14 +15 1010.9 991.0 +17.4
18 8.08 С 3-5
{7}
20 км 10/10 600 м
[Sc]
+12.4 +8.6 78 +11 +11 1012.9 992.7
21 8.08 СЗ 2-5
{5}
20 км 10/10 1000 м
[Sc]
+11.6 +8.4 81 +10 +10 1013.8 993.5
00 9.08 С 2-4
{6}
20 км 3/3 600 м
[Sc]
+9.3 +7.6 89 +8 +8 1014.8 994.3
03 9.08 С 2-4
{4}
20 км 9/9 1000 м
[Sc]
+9.5 +7.1 85 +8 +8 1016.3 995.9 +8.6
06 9.08 СЗ 3-5
{6}
20 км 9/9 300 м
[Cb cap]
+13.4 +8.0 70 +12 +13 1016.8 996.7
09 9.08 С 1-4
{9}
20 км 9/9 300 м
[Cb cap]
+14.6 +7.1 61 +15 +16 1017.4 997.4
12 9.08 С 4-9
{12}
20 км 10/10 300 м
[Cb cap]
+15.7 +6.5 54 +15 +15 1018.2 998.1
15 9.08 С 2-3
{9}
20 км 9/9 600 м
[Sc]
+14.7 +8.1 65 +14 +15 1019.1 999.0 +16.6
18 9.08 СЗ 1-1
{3}
20 км 3/3 600 м
[Sc]
+10.6 +9.0 90 +10 +10 1020.2 999.8
21 9.08 штиль 0
{1}
20 км 8/8 600 м
[Sc]
+7.8 +7.1 95 +7 +7 1020.9 1000.2
00 10.08 З 1-1
{2}
20 км 4/4 600 м
[Sc]
+7.6 +7.1 97 +7 +7 1020.9 1000.2
03 10.08 ЮЗ 1-2
{2}
20 км 3/0
[Ci fib]
+10.0 +9.2 95 +9 +11 1020.8 1000.3 +7.0
06 10.08 ЮЗ 4-8
{8}
20 км 8/0
[Cs]
+18.2 +8.1 52 +18 +23 1019.6 999.7
09 10.08 ЮЗ 4-8
{8}
20 км 8/6 600 м
[Sc Cs]
+21.0 +11.1 53 +23 +26 комфорт 1016.9 997.3
12 10.08 З 4-9
{10}
20 км 8/0
[Ac trans Ci fib]
+22.6 +13.9 58 +26 +28 жарко 1013.8 994.3
15 10.08 З 3-5
{10}
20 км 6/3 600 м
[Sc Ac trans Ci fib]
+22.4 +14.8 62 +26 +26 жарко 1012.2 992.7 +23.0
18 10.08 З 1-3
{5}
20 км 8/4 300 м
[Cb cap Ci fib]
+19.4 +15.9 80 +22 +22 комфорт 1011.7 992.1
21 10.08 З 2-4
{4}
20 км {ливн. осадки} 10/0
[Ci fib]
+18.4 +15.5 83 +19 +19 1011.8 992.1
00 11.08 З 1-2
{4}
20 км {ливн. осадки} 10/0
[Ac trans Ci fib]
+15.7 +14.3 91 +16 +16 1012.1 992.3
03 11.08 З 2-4
{4}
20 км 10/0
[Ci fib]
+17.1 +15.1 88 +17 +19 1012.6 992.7 +15.0 0.0
06 11.08 СЗ 3-6
{8}
20 км 10/8 600 м
[Cu Sc Ci fib]
+20.2 +13.4 65 +23 +24 комфорт 1012.9 993.3
09 11.08 З 4-7
{9}
20 км 8/4 600 м
[Cu hum Ac trans Ci fib]
+22.4 +13.6 57 +25 +28 комфорт 1012.5 993.0
12 11.08 СЗ 2-4
{7}
16 км слабый ливневой дождь 10/8 300 м
[Cb cap Cs]
+19.6 +14.2 71 +22 +23 комфорт 1012.7 993.0
15 11.08 штиль 0
{6}
20 км {ливн. осадки} 9/6 300 м
[Cb cap Ac trans Cs]
+18.2 +15.9 86 +19 +19 1011.8 992.1 +23.8 3
18 11.08 штиль 0
{3}
20 км {ливн. осадки} 10/8 300 м
[Cb cap Ci fib]
+15.5 +15.0 97 +15 +15 1011.6 991.8
21 11.08 Ю 1-2
{3}
20 км {ливн. осадки} 10/10 300 м
[Cb cap]
+15.6 +15.1 97 +16 +16 1010.5 990.7
00 12.08 ЮЗ 1-2
{2}
20 км {ливн. осадки} 6/6 600 м
[Sc]
+16.3 +15.8 97 +17 +17 1010.0 990.2
03 12.08 З 2-3
{4}
20 км 10/4 300 м
[Sc Ac As Cs]
+17.8 +15.6 87 +18 +19 1010.0 990.3 +15.1 0.8
06 12.08 З 3-4
{6}
20 км 3/0
[Cs]
+22.0 +15.9 68 +26 +32 душно 1009.6 990.2
09 12.08 З 4-7
{9}
20 км 9/9 300 м
[Cu med, cong]
+25.7 +14.3 49 +28 +29 жарко 1009.3 990.2
12 12.08 ЮЗ 3-7
{10}
20 км 8/8 600 м
[Cu hum]
+27.0 +13.9 45 +29 +30 жарко 1008.9 989.8
15 12.08 З 2-4
{7}
20 км 3/3 600 м
[Sc]
+25.2 +15.5 55 +28 +29 жарко 1008.2 989.0 +27.3
18 12.08 Ю 1-3
{5}
20 км ясно +20.2 +16.5 79 +24 +24 комфорт 1008.2 988.7
21 12.08 ЮЗ 1-2
{3}
20 км ясно +17.8 +15.6 87 +19 +19 1007.8 988.1
00 13.08 ЮЗ 1-3
{4}
20 км ясно +16.8 +14.9 89 +18 +18 1007.0 987.3
03 13.08 Ю 3-5
{5}
20 км 8/8 1000 м
[Sc]
+17.3 +14.1 81 +17 +18 1006.1 986.5 +16.5
06 13.08 Ю 4-6
{6}
20 км 10/0
[Ac cast Cs]
+21.6 +14.3 63 +25 +28 комфорт 1004.6 985.3
09 13.08 ЮЗ 6-9
{10}
20 км 10/6 1000 м
[Cu med, cong Cs]
+26.0 +12.3 43 +28 +29 жарко 1003.1 984.1
12 13.08 ЮЗ 4-8
{11}
20 км 10/8 600 м
[Cb cap Ci fib]
+24.8 +11.1 42 +26 +27 жарко 1002.9 983.7
15 13.08 З 4-6
{11}
20 км 10/3 600 м
[Cu hum Ci fib]
+22.7 +7.6 38 +24 +24 комфорт 1002.7 983.4 +26.3
18 13.08 ЮЗ 2-3
{7}
20 км 5/3 600 м
[Sc diur, vesp Ac cuf]
+16.1 +8.8 62 +16 +16 1004.2 984.5
21 13.08 ЮЗ 1-2
{3}
20 км ясно +12.9 +8.9 77 +13 +13 1004.9 984.9
00 14.08 Ю 1-2
{3}
20 км 10/0
[Ci fib]
+11.4 +8.8 84 +11 +11 1005.4 985.3
03 14.08 ЮЗ 1-2
{3}
20 км 10/0
[Ac trans Cs]
+12.1 +8.9 81 +12 +13 1006.6 986.6 +10.2
06 14.08 ЮЗ 3-5
{6}
20 км 8/8 1000 м
[Cu med, cong Ci fib]
+18.1 +10.3 60 +18 +20 1006.2 986.6
09 14.08 ЮЗ 3-5
{7}
20 км 9/9 300 м
[Cb cap]
+18.2 +10.2 60 +19 +19 1006.7 987.1
12 14.08 СЗ 2-4
{7}
20 км {ливн. осадки} 8/8 300 м
[Cb cap]
+17.9 +13.3 74 +18 +20 1007.6 987.9
15 14.08 ЮЗ 1-3
{5}
20 км {гроза, ливн. осадки} 6/6 300 м
[Cb cap Ac lent]
+17.5 +12.1 71 +19 +19 1008.4 988.7 +20.2 0.4
18 14.08 ЮЗ 1-1
{3}
20 км туман поземный {гроза, ливн. осадки} 4/4 600 м
[Sc diur, vesp]
+13.3 +12.5 95 +13 +13 1010.2 990.2
21 14.08 штиль 0
{1}
20 км ясно +10.0 +9.4 96 +9 +9 1011.0 990.7
00 15.08 штиль 0
{2}
20 км ясно +8.0 +7.6 97 +7 +7 1011.8 991.4
03 15.08 ЮЗ 1-2
{2}
20 км ясно +10.1 +9.7 97 +9 +11 1013.1 992.7 +7.4
06 15.08 ЮЗ 2-4
{5}
20 км 6/6 600 м
[Cu Sc]
+16.6 +11.9 74 +17 +20 1012.9 993.0
09 15.08 ЮЗ 3-5
{7}
20 км 10/8 300 м
[Cb cap Cs]
+19.1 +11.4 61 +20 +22 1012.8 993.1

 

Местоположение метеостанции Кирс (Кировская область, Россия): широта 59.35 долгота 52.25 высота над уровнем моря 169 м.

В архиве по умолчанию представлена погода в Кирсе за последнюю неделю. Архивные данные за месяц целиком и за предыдущие месяцы, начиная с января 2011 года, Вы можете получить, выбрав интересующий диапазон дат из раскрывающегося списка и нажав кнопку "Ввод!".


*Определитесь, кто Вы:
робот инопланетянин человек

Внимание! Время в таблицах - всемирное. Для получения местного времени необходимо прибавить поправку, которая в Кирсе равна 3 ч.

Смотрите также архив погоды в соседних городах и на ближайших метеорологических станциях:

Погода в Нагорске (Кировская область, Россия) (81 км)
Погода в Белой Холунице (Кировская область, Россия) (99 км)
Погода в Фаленках (Кировская область, Россия) (118 км)
Погода в Усть-Черной (Пермский край, Россия) (126 км)
Погода в Кочево (Пермский край, Россия) (128 км)
Погода в Глазове (Удмуртия, Россия) (137 км)
Погода в Кудымкаре (Пермский край, Россия) (142 км)
Погода в Койгородке (Коми, Россия) (142 км)
Погода в Гайнах (Пермский край, Россия) (156 км)
Погода в Косе (Пермский край, Россия) (168 км)

Пояснения к столбцам:

Ветер - указаны скорость ветра в м/с - средняя за 10 мин, порывы в срок и между сроками (в фигурных скобках) и направление, откуда дует ветер: С - северный, СВ - северо-восточный, В - восточный, ЮВ - юго-восточный, Ю - южный, ЮЗ - юго-западный, З - западный, СЗ - северо-западный.
Видимость - горизонтальная дальность видимости в метрах или километрах. При видимости от 1 до 10 км при отсутствии осадков обычно наблюдается дымка, при ухудшении видимости до 1 км и менее - туман. В сухую погоду видимость может ухудшаться дымом, пылью или мглою.
Явления - указаны атмосферные явления, наблюдавшиеся в срок или в последний час перед сроком; фигурными скобками обозначены явления, наблюдавшиеся между сроками (за 1-3 часа до срока); квадратными скобками обозначены град или гололедные отложения с указанием их диаметра в мм.
Облачность - указаны через наклонную черту общая и нижняя облачность в баллах и высота нижней границы облаков в метрах; квадратными скобками обозначены формы облаков: Ci - перистые, Cs - перисто-слоистые, Cc - перисто-кучевые, Ac - высококучевые, As - высокослоистые, Sc - слоисто-кучевые, Ns - слоисто-дождевые, Cu - кучевые, Cb - кучево-дождевые. Подробнее классификацию облаков см. в Атласе облаков (PDF).
T - Температура воздуха - температура, измеренная на высоте 2 м над землей.
Td - Температура точки росы - температура, при понижении до которой содержащийся в воздухе водяной пар достигнет насыщения.
f - Относительная влажность воздуха - влажноcть воздуха, измеренная на высоте 2 м над землей.
Te - Эффективная температура - температура, которую ощущает одетый по сезону человек в тени. Характеристика душности погоды. При расчете учитывается влияние влажности воздуха и скорости ветра на теплоощущения человека.
Tes - Эффективная температура на солнце - температура, которую ощущает человек, с поправкой на солнечный нагрев. Характеристика знойности погоды. Зависит от высоты солнца над горизонтом, облачности и скорости ветра. Ночью, в пасмурную погоду, а также при ветре 12 м/с и более поправка равна нулю.
P - Атмосферное давление - приведенное к уровню моря атмосферное давление.
Po - Атмосферное давление - измеренное на уровне метеостанции атмосферное давление.
Tmin - Минимальная температура - минимум температуры воздуха на высоте 2 м над землей.
Tmax - Максимальная температура - максимум температуры воздуха на высоте 2 м над землей.
R - Количество осадков - Количество выпавших осадков за период времени, мм. При наведении курсора мыши на число - период времени, за который выпало указанное количество осадков.
R24 - Количество осадков - Количество выпавших осадков за 24 часа, мм.
S - Снежный покров - Высота снежного покрова, см. При наведении курсора мыши на число - состояние снежного покрова и степень покрытия местности в баллах.